DLH13D LFLL-EDDS

Flight info

Callsign DLH13D
Flight time 0h 54m
Altitude 22000
Route RISOR T45 ASLEG/N0471F320 T45 VENAT Z67 KORED N871 DITON T163 ZUE T125 REUTL REUTL1W
Aircraft B748/H-SDE3FGHIM1M2RWXY/LB1

Departure

Time 2026-05-04 10:39
Airport Lyon Saint-Exupéry Airport (LFLL)

Arrival

Time 2026-05-04 11:33
Airport Stuttgart Airport (EDDS)
Time Latitude Longitude Altitude Speed Heading
2026-05-04 10:19 45.72100 5.08194 803 ft 0 kts 304°
2026-05-04 10:28 45.72089 5.08216 803 ft 4 kts 287°
2026-05-04 10:28 45.72084 5.08243 803 ft 4 kts 252°
2026-05-04 10:28 45.72092 5.08270 803 ft 4 kts 219°
2026-05-04 10:29 45.72113 5.08291 804 ft 4 kts 203°
2026-05-04 10:29 45.72127 5.08300 804 ft 0 kts 199°
2026-05-04 10:32 45.72072 5.08274 804 ft 7 kts 198°
2026-05-04 10:33 45.72025 5.08255 804 ft 3 kts 186°
2026-05-04 10:33 45.72002 5.08261 804 ft 3 kts 161°
2026-05-04 10:33 45.71991 5.08270 804 ft 3 kts 149°
2026-05-04 10:33 45.71980 5.08286 805 ft 1 kts 126°
2026-05-04 10:34 45.71970 5.08315 805 ft 6 kts 116°
2026-05-04 10:34 45.71955 5.08381 806 ft 4 kts 95°
2026-05-04 10:34 45.71959 5.08402 807 ft 1 kts 68°
2026-05-04 10:34 45.71979 5.08437 808 ft 9 kts 40°
2026-05-04 10:35 45.72066 5.08450 809 ft 19 kts 355°
2026-05-04 10:35 45.72226 5.08430 807 ft 25 kts 355°
2026-05-04 10:35 45.72433 5.08406 803 ft 34 kts 355°
2026-05-04 10:35 45.72694 5.08376 798 ft 42 kts 354°
2026-05-04 10:36 45.73005 5.08338 795 ft 48 kts 356°
2026-05-04 10:36 45.73351 5.08296 788 ft 52 kts 355°
2026-05-04 10:36 45.73715 5.08251 783 ft 53 kts 355°
2026-05-04 10:36 45.74045 5.08227 779 ft 44 kts
2026-05-04 10:37 45.74339 5.08322 777 ft 43 kts 13°
2026-05-04 10:37 45.74605 5.08420 774 ft 30 kts 25°
2026-05-04 10:37 45.74645 5.08582 775 ft 12 kts 122°
2026-05-04 10:37 45.74623 5.08602 775 ft 0 kts 169°
2026-05-04 10:39 45.69554 5.09176 1725 ft 237 kts 176°
2026-05-04 10:39 45.67972 5.09397 2697 ft 227 kts 175°
2026-05-04 10:39 45.66338 5.09613 2973 ft 243 kts 176°
2026-05-04 10:40 45.64668 5.09941 3644 ft 251 kts 163°
2026-05-04 10:40 45.63122 5.11297 4554 ft 264 kts 141°
2026-05-04 10:40 45.61929 5.13319 5806 ft 275 kts 124°
2026-05-04 10:40 45.61270 5.15962 6736 ft 296 kts 106°
2026-05-04 10:41 45.60974 5.18884 7239 ft 298 kts 102°
2026-05-04 10:41 45.60736 5.21917 7402 ft 319 kts 102°
2026-05-04 10:41 45.60459 5.25166 7813 ft 347 kts 102°
2026-05-04 10:41 45.60130 5.28708 8253 ft 374 kts 102°
2026-05-04 10:42 45.59778 5.32526 8630 ft 401 kts 101°
2026-05-04 10:42 45.59453 5.36224 9372 ft 411 kts 101°
2026-05-04 10:42 45.59093 5.40290 10354 ft 418 kts 101°
2026-05-04 10:42 45.58709 5.44455 11257 ft 424 kts 101°
2026-05-04 10:43 45.58319 5.48654 12120 ft 432 kts 101°
2026-05-04 10:44 45.55478 5.79180 14103 ft 453 kts 101°
2026-05-04 10:45 45.55080 5.83531 15282 ft 444 kts 98°
2026-05-04 10:45 45.55034 5.87063 15749 ft 456 kts 88°
2026-05-04 10:45 45.55365 5.90118 16304 ft 461 kts 79°
2026-05-04 10:45 45.56029 5.93250 16832 ft 467 kts 71°
2026-05-04 10:46 45.57439 5.97219 17549 ft 474 kts 58°
2026-05-04 10:46 45.59533 6.00965 18311 ft 480 kts 45°
2026-05-04 10:46 45.62084 6.03990 18904 ft 485 kts 33°
2026-05-04 10:46 45.64894 6.06453 19561 ft 488 kts 30°
2026-05-04 10:47 45.67974 6.08903 20102 ft 493 kts 28°
2026-05-04 10:47 45.70945 6.11425 20764 ft 496 kts 32°
2026-05-04 10:47 45.73793 6.14109 21339 ft 500 kts 33°
2026-05-04 10:47 45.76739 6.16838 21969 ft 503 kts 32°
2026-05-04 10:49 45.97203 6.35034 22063 ft 504 kts 32°
2026-05-04 10:49 46.00152 6.37713 22062 ft 504 kts 32°
2026-05-04 10:50 46.03068 6.40350 22069 ft 508 kts 32°
2026-05-04 10:51 46.24057 6.59686 22059 ft 511 kts 41°
2026-05-04 10:52 46.26508 6.63410 22061 ft 510 kts 52°
2026-05-04 10:52 46.28651 6.67486 22054 ft 510 kts 54°
2026-05-04 10:52 46.30760 6.71633 22042 ft 510 kts 53°
2026-05-04 10:54 46.45637 6.99605 22035 ft 509 kts 53°
2026-05-04 10:54 46.47857 7.03843 22030 ft 510 kts 53°
2026-05-04 10:56 46.65484 7.28240 22018 ft 510 kts 23°
2026-05-04 10:56 46.68460 7.30161 22017 ft 510 kts 23°
2026-05-04 10:56 46.71687 7.32324 22008 ft 511 kts 25°
2026-05-04 10:57 46.74895 7.34544 22007 ft 510 kts 25°
2026-05-04 10:57 46.78118 7.36741 22004 ft 511 kts 24°
2026-05-04 10:57 46.81346 7.38903 22005 ft 510 kts 25°
2026-05-04 10:57 46.84403 7.41556 21994 ft 511 kts 36°
2026-05-04 10:58 46.87042 7.45022 22004 ft 511 kts 48°
2026-05-04 10:58 46.89293 7.49043 22000 ft 511 kts 52°
2026-05-04 10:58 46.91424 7.53128 22003 ft 511 kts 53°
2026-05-04 10:58 46.93606 7.57229 22004 ft 511 kts 51°
2026-05-04 10:59 46.95846 7.61279 21999 ft 511 kts 51°
2026-05-04 10:59 46.98071 7.65328 22001 ft 511 kts 52°
2026-05-04 10:59 47.00266 7.69431 21996 ft 511 kts 52°
2026-05-04 10:59 47.02454 7.73527 21995 ft 511 kts 52°
2026-05-04 11:00 47.04674 7.77621 21998 ft 512 kts 51°
2026-05-04 11:01 47.19163 8.07309 22000 ft 511 kts 59°
2026-05-04 11:02 47.21060 8.11744 21995 ft 511 kts 58°
2026-05-04 11:02 47.22962 8.16153 22002 ft 511 kts 58°
2026-05-04 11:05 47.53013 8.71336 22025 ft 511 kts 50°
2026-05-04 11:06 47.55369 8.75287 22022 ft 511 kts 50°
2026-05-04 11:06 47.57722 8.79237 22017 ft 511 kts 50°
2026-05-04 11:06 47.59915 8.83366 22017 ft 509 kts 58°
2026-05-04 11:06 47.61629 8.87425 22019 ft 509 kts 60°
2026-05-04 11:08 47.74633 9.18734 21997 ft 509 kts 57°
2026-05-04 11:10 47.96844 9.31330 22007 ft 512 kts
2026-05-04 11:12 48.19331 9.33274 22002 ft 513 kts
2026-05-04 11:12 48.22863 9.33862 21980 ft 505 kts
2026-05-04 11:12 48.26331 9.34419 21051 ft 501 kts
2026-05-04 11:12 48.29644 9.34942 20324 ft 496 kts
2026-05-04 11:13 48.33070 9.35499 19509 ft 492 kts
2026-05-04 11:13 48.36463 9.35853 18716 ft 486 kts 357°
2026-05-04 11:13 48.39786 9.35254 17887 ft 479 kts 346°
2026-05-04 11:13 48.43023 9.34206 17074 ft 472 kts 346°
2026-05-04 11:14 48.46201 9.33142 16281 ft 466 kts 346°
2026-05-04 11:14 48.49316 9.32145 15503 ft 460 kts 347°
2026-05-04 11:14 48.52430 9.31180 14705 ft 454 kts 347°
2026-05-04 11:16 48.71790 9.39135 14007 ft 448 kts 60°
2026-05-04 11:16 48.73097 9.43390 14007 ft 445 kts 74°
2026-05-04 11:16 48.73919 9.47894 14007 ft 443 kts 78°
2026-05-04 11:17 48.74630 9.52366 13182 ft 437 kts 78°
2026-05-04 11:17 48.75442 9.56809 12333 ft 432 kts 75°
2026-05-04 11:19 48.80854 9.85860 7014 ft 391 kts 76°
2026-05-04 11:19 48.81576 9.89804 7022 ft 392 kts 76°
2026-05-04 11:19 48.82306 9.93822 7028 ft 396 kts 76°
2026-05-04 11:19 48.83045 9.97860 7001 ft 397 kts 76°
2026-05-04 11:20 48.83776 10.01885 7020 ft 396 kts 76°
2026-05-04 11:20 48.84369 10.05982 7014 ft 395 kts 85°
2026-05-04 11:20 48.84427 10.10137 7027 ft 393 kts 96°
2026-05-04 11:20 48.83958 10.14156 7030 ft 392 kts 107°
2026-05-04 11:22 48.69848 10.29543 7006 ft 384 kts 184°
2026-05-04 11:22 48.67199 10.28939 7030 ft 383 kts 194°
2026-05-04 11:23 48.64685 10.27576 7019 ft 384 kts 205°
2026-05-04 11:23 48.62395 10.25525 7021 ft 383 kts 216°
2026-05-04 11:24 48.57025 10.03940 7001 ft 392 kts 281°
2026-05-04 11:25 48.57883 10.00027 7010 ft 394 kts 292°
2026-05-04 11:25 48.59175 9.96372 7011 ft 395 kts 298°
2026-05-04 11:25 48.60518 9.92738 7003 ft 395 kts 298°
2026-05-04 11:26 48.63196 9.85497 7019 ft 393 kts 297°
2026-05-04 11:27 48.71079 9.64002 6986 ft 278 kts 297°
2026-05-04 11:28 48.72016 9.61427 6992 ft 280 kts 297°
2026-05-04 11:28 48.72886 9.58793 6985 ft 279 kts 290°
2026-05-04 11:28 48.73494 9.56017 6993 ft 277 kts 282°
2026-05-04 11:28 48.73838 9.53151 6993 ft 277 kts 274°
2026-05-04 11:29 48.73913 9.50248 6992 ft 275 kts 266°
2026-05-04 11:29 48.73727 9.47390 6801 ft 271 kts 258°
2026-05-04 11:29 48.73282 9.44632 6281 ft 264 kts 251°
2026-05-04 11:29 48.72766 9.42132 6017 ft 234 kts 252°
2026-05-04 11:31 48.69886 9.27028 1855 ft 200 kts 254°
2026-05-04 11:33 48.68969 9.20730 1275 ft 24 kts 254°
2026-05-04 11:33 48.68926 9.20500 1285 ft 21 kts 255°
2026-05-04 11:33 48.68903 9.20331 1287 ft 6 kts 281°
2026-05-04 11:34 48.68910 9.20311 1287 ft 2 kts 297°
2026-05-04 11:34 48.68915 9.20301 1288 ft 0 kts 306°
2026-05-04 11:34 48.68918 9.20298 1288 ft 1 kts 320°
2026-05-04 11:34 48.68925 9.20296 1288 ft 0 kts 344°
2026-05-04 11:35 48.68936 9.20292 1288 ft 3 kts 346°
2026-05-04 11:35 48.68956 9.20286 1289 ft 4 kts 348°
2026-05-04 11:35 48.68958 9.20285 1289 ft 0 kts 348°